Tracking 20475 objects as of 27-Feb-2020
HD Live streaming from Space Station
objects crossing your sky now

SKIPPER

Track SKIPPER now!
10-day predictions
SKIPPER is classified as:


NORAD ID: 23752
Int'l Code: 1995-072B
Perigee: 809.4 km
Apogee: 816.3 km
Inclination: 99.0 °
Period: 101.0 minutes
Semi major axis: 7183 km
RCS: 0.7042 m2 (medium)
Launch date: December 28, 1995
Source: United States (US)
Launch site: TYURATAM MISSILE AND SPACE COMPLEX (TTMTR)
aabbcc
Your satellite tracking list
Your tracking list is empty




NASA's NSSDC Master Catalog

Two Line Element Set (TLE):
1 23752U 95072B   20057.42765283 -.00000045  00000-0  62687-6 0  9998
2 23752  99.0014  65.0758 0004750 317.3804  42.7006 14.25828454257395
Source of the keplerian elements: AFSPC